Location: Northcutt
(34.7304°N, 84.4305°W)
Time: 18:58:31
(UTC+00:00)

Transit 2A Rocket - Pass Details

Date: 03 October 2022
Orbit: 589 x 911 km, 66.7° (Epoch: 03 December)

Event Time Altitude Azimuth Distance (km) Brightness Sun altitude
Rises 12:04:22 0° 249° (WSW) 2,838 7.4 5.4°
Reaches altitude 10° 12:07:31 10° 273° (W) 1,919 6.5 6.0°
Maximum altitude 12:09:57 15° 308° (NW) 1,623 6.2 6.5°
Drops below altitude 10° 12:12:25 10° 344° (NNW) 1,922 6.9 7.0°
Sets 12:15:35 0° 8° (N) 2,846 7.9 7.6°
